Regional Weather Roundup
Issued by NWS Kansas City/Pleasant Hill, MO

Home | Current Version | Previous Version | Text Only | Print | Product List | Glossary On
Versions: 1 2 3 4 5 6 7 8 9 10 11 12 13 14 15 16 17 18 19 20 21 22 23 24 25 26 27
000
ASUS43 KEAX 282110
RWREAX

WEATHER ROUNDUP FOR EASTERN KANSAS AND NORTHWEST MISSOURI
NATIONAL WEATHER SERVICE KANSAS CITY/PLEASANT HILL MO
400 PM CDT SAT MAY 28 2016

KSZ040-057-103>105-MOZ028-029-037-043-282200-
...KANSAS CITY METROPOLITAN AREA...

CITY           SKY/WX    TMP DP  RH WIND       PRES   REMARKS
K.C. INTL      PTSUNNY   74  58  57 W13       29.91R
K.C. DOWNTOWN  MOSUNNY   77  58  51 W10G18    29.89S
LEES SUMMIT    PTSUNNY   75  58  55 SW17      29.91R
OLATHE - IXD   PTSUNNY   76  58  53 SW14      29.92S
OLATHE - OJC   MOSUNNY   74  57  55 SW12      29.92R
LAWRENCE       PTSUNNY   76  59  55 W9        29.91R

$$

MOZ001>008-011>017-020>025-030>033-038>040-044>046-053-054-282200-
...NORTHERN AND CENTRAL MISSOURI...

CITY           SKY/WX    TMP DP  RH WIND       PRES   REMARKS
ST. JOSEPH     MOSUNNY   76  58  53 SW13      29.88R
MOSBY          PTCLDY    75  55  50 W16G24    29.90R
WARRENSBURG    MOSUNNY   77  61  57 SW13G18   29.91S
WHITEMAN AFB   SUNNY     78  62  56 SW17G23   29.90R
CLINTON        MOSUNNY   79  63  57 SW14      29.93R
SEDALIA        MOSUNNY   80  62  54 SW14G24   29.92S
WARSAW         NOT AVBL
CHILLICOTHE      N/A     77  61  57 S16G22    29.87S
KIRKSVILLE     LGT RAIN  77  64  64 SW15G22   29.88R

$$

MOZ041-047>049-056>058-063>065-088>090-097-282200-
...EASTERN AND SOUTHERN MISSOURI...

CITY           SKY/WX    TMP DP  RH WIND       PRES   REMARKS
ST. LOUIS INTL PTSUNNY   85  66  53 S14G22    29.92F
SPIRIT OF STL  PTSUNNY   84  67  56 S10G17    29.90S
COLUMBIA       MOSUNNY   82  64  54 SW18      29.91R
JEFFERSON CITY MOSUNNY   83  63  50 SW16      29.89R
ROLLA          TSTM      77  65  66 S12G21    29.93R
SPRINGFIELD    MOSUNNY   79  64  60 SW10      29.96S
BRANSON        MOSUNNY   84  66  54 S12       29.97F
JOPLIN         MOSUNNY   79  65  62 SW12G18   29.96R
WEST PLAINS    MOSUNNY   81  66  60 S12       30.00S

$$

IAZ060-094-KSZ022-034>040-054-083-096-NEZ052-066-093-282200-
...KANSAS...SOUTHEAST NEBRASKA AND IOWA...

CITY           SKY/WX    TMP DP  RH WIND       PRES   REMARKS
TOPEKA         SUNNY     77  59  53 W10       29.90S
MANHATTAN      PTSUNNY   77  58  51 W12G17    29.90S
EMPORIA        PTSUNNY   76  59  55 W8        29.93S
CHANUTE        PTSUNNY   78  60  53 SW12      29.93S
WICHITA        MOSUNNY   81  56  42 W8        29.93S
OMAHA          PTSUNNY   71  56  58 W23G31    29.80S
LINCOLN        MOSUNNY   75  57  53 W13       29.85R
FALLS CITY     MOSUNNY   76  59  55 W13       29.86R
LAMONI         LGT RAIN  70  62  76 SW14      29.85R
DES MOINES     MOSUNNY   73  65  75 SW13      29.79S

$$





USA.gov is the U.S. government's official web portal to all federal, state and local government web resources and services.